Regional Weather Roundup
Issued by NWS Little Rock, AR

Home | Current Version | Previous Version | Graphics & Text | Print | Product List | Glossary On
Versions: 1 2 3 4 5 6 7 8 9 10 11 12 13 14 15 16 17 18 19 20 21 22 23 24 25 26 27 28 29 30 31 32 33 34 35 36 37 38 39 40 41 42 43 44 45 46 47 48 49 50
000
ASUS44 KLZK 252205
RWRLZK

WEATHER ROUNDUP FOR ARKANSAS
NATIONAL WEATHER SERVICE LITTLE ROCK AR
500 PM CDT MON MAY 25 2015

NOTE: "FAIR" INDICATES FEW OR NO CLOUDS BELOW 12,000 FEET WITH NO
SIGNIFICANT WEATHER AND/OR OBSTRUCTIONS TO VISIBILITY.

ARZ001-003-010-029-252300-
NORTHWEST ARKANSAS

CITY           SKY/WX    TMP DP  RH WIND       PRES   REMARKS
FAYETTEVILLE   MOSUNNY   77  66  68 SE12      29.88F
FORT SMITH     CLOUDY    79  66  64 SE8       29.85F
HARRISON       MOSUNNY   78  63  59 S8        29.94F
BENTONVILLE    MOSUNNY   79  63  57 S9        29.90F
ROGERS         PTSUNNY   79  65  62 SE10      29.90S
SILOAM SPGS    MOSUNNY   77  63  61 SE10      29.89F
HIGHFILL       MOSUNNY   79  66  64 S10       29.88F
SPRINGDALE     MOSUNNY   79  64  61 S12G23    29.92S
$$

ARZ004-005-016-252300-
NORTH CENTRAL ARKANSAS

CITY           SKY/WX    TMP DP  RH WIND       PRES   REMARKS
BATESVILLE     PTSUNNY   82  70  65 E10       29.94F HX  86
FLIPPIN        MOSUNNY   81  64  57 SE5       29.90F
MTN HOME       MOSUNNY   80  66  62 S12       29.92F
$$

ARZ040-041-252300-
WEST CENTRAL ARKANSAS

CITY           SKY/WX    TMP DP  RH WIND       PRES   REMARKS
MENA           PTSUNNY   81  70  69 SE5       29.88F
MOUNT IDA      LGT RAIN  71  66  84 VRB3      29.90R
$$

ARZ009-017-025-026-028-252300-
NORTHEAST ARKANSAS

CITY           SKY/WX    TMP DP  RH WIND       PRES   REMARKS
CORNING          N/A     79  72  78 SE12      29.98F
JONESBORO      PTSUNNY   80  69  69 S12       29.97F
NEWPORT        MOSUNNY   83  68  60 S13       29.96F HX  86
WALNUT RIDGE   SUNNY     81  66  61 S10       29.97F
BLYTHEVILLE    CLOUDY    80  70  71 S10       30.01F
$$

ARZ022-023-033-042-044-252300-
CENTRAL ARKANSAS

CITY           SKY/WX    TMP DP  RH WIND       PRES   REMARKS
LITTLE ROCK    PTSUNNY   84  68  58 SE12      29.92F HX  87
N LITTLE ROCK  PTSUNNY   82  71  68 SE12G18   29.92F HX  86
SEARCY         PTSUNNY   82  71  69 SE9       29.95F HX  86
HOT SPRINGS    CLOUDY    81  68  64 SE14G20   29.92S
RUSSELLVILLE   PTSUNNY   80  69  69 E6        29.91F
CLINTON        FAIR      81  70  69 S6        29.94F
$$

ARZ036-252300-
EAST ARKANSAS

CITY           SKY/WX    TMP DP  RH WIND       PRES   REMARKS
WEST MEMPHIS   MOSUNNY   83  72  69 SE10      29.97F HX  88
$$

ARZ050-053-066-070-073-252300-
SOUTHWEST ARKANSAS

CITY           SKY/WX    TMP DP  RH WIND       PRES   REMARKS
ARKADELPHIA    FAIR      84  73  69 VRB6      29.91R HX  90
CAMDEN         PTSUNNY   84  68  58 NE10G16   29.91S HX  87
TEXARKANA      PTSUNNY   83  71  67 SE14      29.87F HX  87
EL DORADO      MOSUNNY   84  69  60 SE13      29.92R HX  88
DE QUEEN       PTSUNNY   82  71  69 SE9       29.82F HX  86
$$

ARZ056-057-069-252300-
SOUTHEAST ARKANSAS

CITY           SKY/WX    TMP DP  RH WIND       PRES   REMARKS
PINE BLUFF     MOSUNNY   85  68  56 SE13      29.92F HX  88
STUTTGART      MOSUNNY   82  70  65 MISG      29.93F HX  86
MONTICELLO     MOSUNNY   85  70  60 SE7G18    29.94F HX  89

$$





USA.gov is the U.S. government's official web portal to all federal, state and local government web resources and services.